Regional Weather Roundup
Issued by NWS Green Bay, WI

Home | Current Version | Previous Version | Text Only | Print | Product List | Glossary On
Versions: 1 2 3 4 5 6 7 8 9 10 11 12 13 14 15 16 17 18 19 20 21 22 23 24 25 26 27 28 29 30 31 32 33 34 35 36 37 38 39 40 41 42 43 44 45 46 47 48 49 50
000
ASUS43 KGRB 230910
RWRGRB

NORTH-CENTRAL AND NORTHEAST WISCONSIN REGIONAL WEATHER ROUNDUP
NATIONAL WEATHER SERVICE GREEN BAY WI
400 AM CDT TUE SEP 23 2014

WIZ005-009-010>012-018-019-231000-
NORTH CENTRAL WISCONSIN

CITY           SKY/WX    TMP DP  RH WIND       PRES   REMARKS
IRONWOOD       CLEAR     48  48 100 CALM      30.17R
MANITOWISH WTR PTCLDY    40  40 100 CALM      30.21S FOG
ARBOR VITAE    CLEAR     45  43  93 CALM      30.22R
EAGLE RIVER    FOG       43  43 100 CALM      30.21R VSB 1/4
LAND O LAKES   CLEAR     39  39 100 CALM      30.22R
RHINELANDER    CLEAR     45  44  97 W5        30.22S
PHILLIPS       CLEAR     42  41  97 CALM      30.21S
ANTIGO         CLEAR     42  42 100 CALM      30.23R
TOMAHAWK       CLEAR     39  38  97 CALM      30.23S
MERRILL        FOG       38  38 100 CALM      30.22S VSB 1/2
$$

WIZ013-073-231000-
NORTHEAST WISCONSIN

CITY           SKY/WX    TMP DP  RH WIND       PRES   REMARKS
IRON MOUNTAIN  CLEAR     50  47  89 N3        30.18R
MARINETTE      CLEAR     52  46  82 W3        30.19R
OCONTO         CLEAR     48  48 100 W5        30.21R
$$

WIZ017-030-035>037-045-231000-
CENTRAL WISCONSIN

CITY           SKY/WX    TMP DP  RH WIND       PRES   REMARKS
MEDFORD        FOG       42  42 100 CALM      30.22S VSB 1
WAUSAU         CLEAR     47  46  97 CALM      30.22R
MOSINEE        CLEAR     46  46 100 CALM      30.24R FOG
MARSHFIELD     FOG       47  46  97 CALM      30.23R VSB 3/4
WISC RAPIDS    CLEAR     44  43  96 CALM      30.25R FOG
STEVENS POINT  CLEAR     39  38  97 CALM      30.24R
WAUPACA        CLEAR     47  46  96 CALM      30.24R
SHAWANO        CLEAR     49  47  94 CALM      30.22S
CLINTONVILLE   PTCLDY    43  43 100 CALM      30.23R FOG
$$

WIZ038-039-048-051-231000-
FOX VALLEY

CITY           SKY/WX    TMP DP  RH WIND       PRES   REMARKS
NWS GREEN BAY  CLEAR     47  46  97 W3        30.23R
APPLETON       CLEAR     50  48  93 W8        30.23S
OSHKOSH        CLEAR     53  49  86 SW6       30.23R
FOND DU LAC    CLEAR     49  46  90 S3        30.24S
$$

WIZ022-050-052-231000-
EAST CENTRAL WISCONSIN

CITY           SKY/WX    TMP DP  RH WIND       PRES   REMARKS
STURGEON BAY   CLEAR     54  48  82 SW5       30.22R
MANITOWOC      CLEAR     52  50  93 W6        30.23R
SHEBOYGAN      CLEAR     46  45  96 SW3       30.24R
$$

LMZ563-521-522-541>543-231000-
LAKESHORE

STATION/POSITION TIME  TEMP    WIND        PRES    VSBY  WAVE
                       AIR SEA DIR/SP/G                  HT/PER
                 (UTC) (F)     (DEG/KT/KT) (MB)    (MI)  (FT/S)
SHEBOYGAN LKSHOR 0900   54 53  250/ 10/ 11 1024.4R
KEWAUNEE LKSHORE 0900   51     300/  5/  7 1022.1R
NORTHPORT PIER   0900   58     260/  5/ 12 1022.0R
N MID LAKE BUOY  0800   57 57  240/ 10/ 12 1021.8R         2/ 5
S GREEN BAY BUOY 0900   58     VRB  8/ 10  1023.9R
CHAMBERS ISLAND  0900   55     220/  5/  9 1022.4S
MENOMINEE LKSHOR 0900   55     250/  8/ 11 1022.7S
$$


USA.gov is the U.S. government's official web portal to all federal, state and local government web resources and services.